SCP
0 0 -0 0 0 -0 0 0 0 0 0 0 -0 -0 -0 -0 -0 0 0 0 0 0 -0 -0 -0 -0 -0 -0 -0 -0 -0 0 0 0 0 0 0 0 0 0 0 0 0
-0 -0 -0 0 0 0 0 0 0 0 0 0 0 0 0 0 0 0 0 0 0 0 -0 -0 -0 -0 -0 -0 0 -0 -0 0 0 0 0 0 0 0 0 0 0 0 -0
-0 -0 -0 -0 0 0 0 0 0 0 0 0 0 0 0 0 0 0 0 0 0 -0 -0 -0 -0 -0 -0 0 0 -0 -0 0 0 0 0 0 0 0 0 0 -0 -0 -0
-0 -0 -0 0 0 0 0 0 0 0 0 0 0 0 0 0 0 0 0 0 0 -0 -0 -0 0 -0 -0 -0 0 -0 -0 -0 0 0 0 0 0 0 0 0 -0 -0 -0
-0 -0 -0 0 0 0 0 0 0 0 0 0 0 0 -0 -0 -0 0 0 0 0 0 0 0 0 0 -0 0 0 -0 -0 -0 -0 -0 -0 0 0 0 -0 -0 -0 -0 -0
-0 -0 -0 0 0 0 0 0 0 0 0 0 0 0 -0 -0 -0 -0 0 0 0 0 0 0 0 0 0 -0 0 0 -0 -0 0 -0 -0 -0 0 -0 -0 -0 -0 -0 -0
-0 -0 -0 0 -0 -0 -0 -0 -0 -0 0 0 0 -0 -0 -0 -0 -0 -0 0 0 0 0 0 0 0 0 0 0 0 -0 -0 0 0 -0 0 -0 -0 -0 -0 -0 -0 -0
-0 -0 -0 -0 -0 -0 -0 -0 -0 -0 0 0 -0 -0 -0 -0 -0 -0 -0 -0 0 0 0 0 0 0 -0 0 0 0 0 0 0 -0 -0 0 -0 -0 -0 -0 -0 -0 -0
-0 -0 -0 -0 0 -0 -0 -0 -0 -0 -0 -0 -0 0 -0 0 0 -0 0 0 -0 0 0 0 0 0 -0 -0 0 0 0 0 0 0 0 -0 -0 -0 -0 -0 -0 -0 -0
-0 -0 -0 -0 -0 -0 -0 -0 -0 -0 -0 -0 -0 -0 -0 0 0 0 0 0 0 0 0 0 0 0 -0 -0 0 0 0 0 0 0 0 0 -0 -0 -0 -0 -0 -0 -0
-0 -0 -0 -0 -0 -0 0 -0 -0 -0 -0 -0 -0 0 0 0 0 -0 0 0 0 0 0 0 0 0 0 0 -0 0 0 0 0 0 0 0 -0 -0 -0 -0 -0 -0 -0
-0 -0 -0 -0 -0 -0 -0 -0 -0 -0 -0 -0 -0 -0 -0 -0 0 0 0 0 0 0 0 0 0 0 0 0 0 -0 0 0 0 0 0 -0 -0 -0 -0 -0 -0 -0 -0
-0 -0 -0 -0 -0 -0 -0 -0 -0 -0 -0 -0 -0 0 -0 -0 0 0 0 0 0 0 0 0 0 0 0 0 0 0 -0 -0 0 0 0 0 -0 -0 -0 -0 -0 -0 -0
-0 0 -0 -0 -0 -0 -0 -0 -0 -0 -0 -0 -0 -0 0 0 0 0 0 0 0 0 0 0 0 0 0 0 0 -0 -0 0 0 0 0 0 0 -0 -0 -0 -0 -0 -0
-0 -0 -0 -0 -0 -0 0 0 0 0 -0 0 0 0 0 0 0 0 0 0 0 0 0 0 0 0 0 0 0 0 0 -0 -0 0 0 -0 0 -0 -0 -0 -0 -0 -0
-0 -0 -0 -0 0 0 0 0 0 0 0 0 0 0 0 0 0 0 0 0 0 0 0 0 -0 -0 -0 -0 0 0 0 0 -0 0 0 0 0 0 0 -0 -0 -0 -0
-0 -0 -0 -0 -0 -0 0 0 0 0 0 0 0 0 0 0 0 0 0 0 0 0 0 -0 -0 -0 -0 -0 -0 -0 -0 0 0 0 0 0 0 0 0 0 0 0 -0
-0 -0 -0 -0 -0 -0 -0 0 0 0 0 0 0 0 0 0 0 0 0 0 0 0 0 0 -0 -0 -0 -0 -0 -0 -0 -0 0 0 0 0 0 0 0 0 0 0 0
-0 -0 -0 -0 -0 -0 -0 0 0 0 0 0 0 0 0 -0 0 0 0 0 0 0 0 0 0 0 0 0 0 0 0 0 0 0 0 0 0 0 0 0 0 0 0
-0 -0 -0 -0 -0 -0 0 0 -0 -0 -0 -0 -0 -0 -0 0 0 0 0 0 0 0 0 0 0 0 0 0 0 0 0 0 0 0 0 0 0 0 0 1 1 0 0
-0 -0 -0 -0 -0 -0 0 0 0 0 0 0 0 0 0 0 0 0 0 0 0 0 0 0 0 0 0 0 0 0 0 0 0 0 0 0 0 0 0 0 1 1 1
-0 -0 -0 -0 -0 -0 0 0 0 0 0 0 0 0 0 0 0 0 0 0 0 0 0 0 0 0 0 0 0 0 0 0 0 0 0 0 0 0 0 0 0 0 0
-0 -0 -0 -0 -0 -0 -0 0 0 0 0 0 0 0 0 0 0 0 0 0 0 0 0 0 0 0 0 0 0 0 0 0 0 0 0 0 0 0 0 0 0 0 0
-0 -0 -0 -0 -0 0 0 0 0 0 0 0 0 0 0 0 0 0 0 0 0 0 0 0 0 0 0 0 0 0 0 0 0 0 0 0 0 0 0 0 0 0 0
-0 -0 -0 0 0 -0 0 0 0 0 0 0 0 0 0 0 0 0 0 0 0 0 0 0 0 0 0 0 0 0 0 0 0 0 0 0 0 0 0 0 0 0 0
-0 0 0 0 0 0 0 0 0 0 0 0 0 0 0 0 0 0 0 0 0 0 0 0 0 0 0 0 0 0 0 0 0 0 0 0 0 0 0 0 0 0 0
Wind_Speed_500mb
33 44 49 52 50 50 47 45 46 45 44 45 49 54 57 48 43 37 34 36 30 26 27 26 25 24 20 19 20 16 15 11 10 14 13 15 15 13 14 13 14 9 12
40 42 47 51 53 52 51 49 49 48 49 50 57 60 44 42 43 40 38 35 28 25 25 26 24 22 20 21 22 19 12 9 11 13 14 15 12 12 13 14 10 15 20
46 46 50 51 52 52 51 51 50 50 53 54 56 48 42 42 42 40 35 29 26 23 23 22 20 20 20 20 18 18 14 11 12 10 10 14 10 11 13 10 13 19 21
48 49 48 49 50 50 47 50 51 53 54 51 48 46 42 37 36 33 28 26 23 21 19 17 16 16 17 19 17 18 15 13 10 3 8 8 10 9 11 13 14 19 20
50 49 49 47 47 48 49 52 52 49 45 41 40 37 33 31 32 29 24 24 21 18 15 12 11 12 15 17 15 14 14 16 10 9 9 9 8 7 12 17 16 22 24
50 48 49 47 46 49 50 50 48 46 43 40 38 37 33 31 29 25 20 18 16 13 11 11 10 12 15 16 15 13 11 15 14 14 8 11 9 7 13 16 20 22 21
51 48 47 45 46 47 46 43 40 37 36 35 36 35 31 28 23 19 15 12 9 11 12 11 12 13 13 13 13 10 10 11 7 6 5 10 7 6 13 14 17 21 21
49 46 44 41 43 44 45 41 36 33 31 31 30 28 25 22 18 14 9 7 8 10 9 9 11 10 9 9 9 9 7 7 3 4 8 9 6 10 10 14 17 19 21
45 44 43 41 40 40 38 36 35 32 29 24 22 23 20 16 13 8 4 4 4 3 5 7 8 8 4 4 6 10 8 6 4 6 3 10 7 11 12 12 16 19 20
43 41 41 40 39 38 36 34 31 27 23 20 19 20 17 14 7 4 3 2 4 7 4 5 6 8 4 1 3 8 11 6 8 3 5 10 8 9 13 13 13 18 19
36 36 35 35 36 34 33 31 26 23 21 19 19 18 14 11 9 4 4 4 3 4 4 2 3 4 5 3 3 1 6 4 7 1 6 4 7 8 11 13 15 17 20
39 35 33 31 31 31 28 25 23 21 19 18 18 14 11 8 6 2 5 12 3 3 4 3 10 11 13 7 4 5 5 6 7 5 5 5 6 11 6 13 18 19 21
35 32 31 30 28 27 29 23 22 21 17 16 16 14 13 8 5 10 10 6 7 7 6 10 13 18 15 15 15 13 9 12 17 15 10 12 10 11 8 10 19 21 23
32 31 30 27 25 26 22 22 19 18 20 15 16 12 11 11 12 11 13 13 14 11 10 12 14 17 19 22 25 19 17 17 22 26 14 13 14 14 16 14 15 24 25
35 37 30 25 25 23 27 24 20 23 20 17 14 16 15 15 14 19 17 18 19 21 21 22 18 25 29 30 28 21 25 21 21 27 24 23 21 21 21 18 18 21 26
34 34 30 19 28 23 26 23 19 18 22 19 21 19 21 18 22 29 22 19 15 17 23 29 30 32 31 34 31 26 24 27 24 26 28 29 30 27 27 26 21 25 27
41 41 38 28 29 23 23 24 25 24 27 25 22 26 26 24 27 25 21 18 23 24 27 28 29 33 32 31 31 28 23 24 29 23 27 34 38 34 31 32 29 27 33
45 44 34 27 23 26 26 32 32 31 30 28 29 29 25 27 29 29 24 24 27 28 25 24 25 27 31 33 35 34 35 30 31 34 35 30 37 38 37 40 36 34 33
37 38 33 31 26 26 22 22 23 31 33 35 36 27 26 27 28 25 25 29 27 21 23 21 22 27 27 29 34 37 31 28 27 32 36 34 38 41 40 40 44 43 41
37 38 36 32 26 22 19 19 18 18 20 23 25 23 24 19 18 22 24 20 16 17 18 21 26 29 31 36 39 34 30 28 26 25 27 32 37 41 43 45 42 46 47
40 37 36 37 28 26 20 17 17 13 13 15 11 12 18 19 18 20 17 14 21 20 18 21 28 29 28 33 40 35 30 19 14 9 9 15 25 40 49 49 51 48 51
44 39 40 34 31 25 20 17 14 11 10 13 9 14 15 13 11 13 26 29 23 17 19 22 21 27 32 26 30 32 21 18 7 8 20 23 25 17 26 42 49 47 50
51 44 42 34 33 28 23 19 16 16 14 15 14 16 13 12 16 22 16 13 11 10 14 21 26 23 26 22 20 14 10 9 42 21 21 16 20 18 17 24 32 44 50
57 47 43 38 35 31 27 24 21 21 22 21 14 17 15 14 18 7 11 2 8 16 24 18 17 17 16 17 16 14 15 18 17 23 32 32 27 25 28 32 34 38 37
61 55 44 46 40 35 31 27 22 26 25 25 21 20 18 15 5 8 12 9 15 27 21 13 12 10 11 11 14 16 15 14 12 20 32 43 36 31 32 33 36 39 42
66 58 53 53 48 41 33 24 27 26 28 28 29 26 24 29 17 12 15 16 25 25 12 10 8 11 9 9 13 13 12 14 18 20 31 40 45 42 39 33 32 36 40
Wind_Direction_500mb
120 121 127 128 130 134 131 131 130 131 135 133 132 127 126 124 128 131 128 126 120 109 107 104 100 95 89 80 71 68 76 97 105 116 97 101 94 100 117 95 60 62 121
122 123 125 128 129 133 132 130 130 133 132 133 135 132 128 126 126 125 125 127 124 112 108 97 89 84 77 70 56 56 66 74 95 124 94 98 83 96 121 105 68 108 119
127 125 124 128 130 132 133 133 134 135 130 131 138 141 136 126 123 124 120 116 109 104 98 92 88 78 64 56 52 51 46 54 76 99 113 88 76 98 113 102 100 121 129
132 131 130 131 132 134 134 134 133 133 132 135 135 134 134 127 123 124 118 112 110 103 94 83 75 65 53 39 35 37 46 56 44 103 102 109 69 108 107 109 110 130 130
134 134 134 134 137 136 135 133 131 128 128 132 135 140 138 133 127 127 119 114 108 98 88 72 69 55 34 25 25 23 45 60 56 31 146 129 88 96 105 110 118 126 127
138 137 137 139 141 140 137 133 133 131 127 128 129 132 135 131 126 123 117 109 105 88 68 66 47 24 13 11 14 19 39 70 77 114 132 123 111 101 117 110 121 141 137
141 140 139 140 140 139 140 142 140 138 140 140 138 135 134 130 127 125 124 113 88 74 67 46 20 7 11 7 13 29 35 52 77 103 126 132 131 137 134 142 128 141 148
146 145 143 143 144 143 145 144 147 152 150 148 147 145 140 138 138 136 124 103 88 80 53 18 3 356 357 9 31 23 36 43 58 112 128 106 142 158 143 146 144 149 152
149 149 150 150 150 152 151 147 144 145 145 145 149 149 150 147 148 141 107 83 89 37 12 8 356 345 341 41 29 22 38 83 77 103 163 165 166 163 155 147 161 164 167
153 151 148 152 154 154 157 158 156 153 153 150 154 154 162 168 135 148 83 70 332 331 342 358 17 13 10 335 3 46 63 103 32 121 258 186 177 176 171 170 170 178 182
159 159 155 156 157 157 157 159 167 170 169 163 162 162 170 180 168 214 284 228 348 322 10 83 38 15 8 71 10 344 79 47 356 88 120 311 220 207 181 189 184 195 195
158 161 162 164 159 161 163 166 170 175 170 168 174 182 206 203 162 4 274 324 272 296 346 34 354 343 318 293 305 303 280 300 294 309 284 308 267 226 205 204 201 203 205
164 160 162 158 162 166 163 171 176 177 176 188 192 216 233 226 272 273 273 286 264 274 308 321 327 328 315 317 315 319 277 276 284 297 268 274 273 246 238 233 215 212 213
179 173 170 166 166 170 176 161 175 171 173 177 211 222 240 254 286 289 299 289 287 296 308 323 335 338 340 328 319 302 290 300 293 271 260 270 283 267 238 242 232 222 223
177 182 174 180 170 168 175 184 197 199 207 227 223 235 249 275 281 292 314 314 298 298 301 306 309 306 319 315 319 288 283 277 280 268 265 262 274 273 247 247 245 236 234
186 185 185 194 187 194 201 211 213 216 213 225 229 236 247 258 281 288 291 291 305 289 289 295 298 305 306 307 306 313 289 272 273 264 262 265 266 258 257 247 253 246 246
188 187 193 201 210 212 214 221 224 216 214 232 244 249 251 269 281 278 278 290 304 297 300 297 297 303 308 309 308 306 297 279 277 263 259 275 264 261 257 250 250 252 248
195 197 203 209 210 210 222 227 235 235 235 240 244 251 249 254 273 284 286 291 291 297 297 301 302 298 303 309 310 308 302 293 272 264 264 260 260 259 260 260 255 251 253
201 202 207 210 211 215 219 235 245 236 242 251 249 250 253 260 265 282 283 305 300 293 294 300 311 313 318 320 315 308 303 300 289 271 264 261 253 252 261 265 259 254 256
197 201 210 217 217 209 220 230 238 229 228 238 253 255 258 267 269 274 280 290 305 313 313 316 322 321 323 328 326 324 317 313 303 294 285 269 261 259 260 264 264 260 256
200 202 201 206 212 212 222 236 236 241 236 232 238 247 247 257 266 279 273 293 310 311 312 312 313 319 326 329 324 323 332 345 338 354 357 307 279 265 263 265 266 261 260
201 205 199 197 200 212 222 221 218 221 217 195 211 243 253 265 279 286 302 300 297 300 303 307 309 317 320 329 332 333 341 14 79 338 326 314 319 289 276 272 270 272 265
199 193 192 200 210 218 210 212 213 214 217 233 232 245 239 268 301 301 306 290 280 294 302 295 299 310 314 324 334 343 346 315 326 329 332 324 310 309 284 286 282 275 271
198 195 197 206 204 200 202 214 223 226 225 239 219 218 228 270 297 319 321 57 7 335 319 302 300 305 311 324 336 341 323 315 322 321 324 328 320 309 290 284 286 283 284
200 199 197 196 197 198 205 213 227 226 230 223 215 212 241 283 262 260 284 308 312 319 321 313 316 330 327 339 351 348 347 348 346 329 327 333 327 326 313 297 289 283 279
203 206 203 200 202 206 209 219 234 239 246 235 222 225 242 268 251 256 269 271 291 304 303 309 346 349 343 352 355 355 4 10 348 337 327 329 329 333 331 324 314 298 291
Wind_Speed_850mb
33 44 49 52 50 50 47 45 46 45 44 45 49 54 57 48 43 37 34 36 30 26 27 26 25 24 20 19 20 16 15 11 10 14 13 15 15 13 14 13 14 9 12
40 42 47 51 53 52 51 49 49 48 49 50 57 60 44 42 43 40 38 35 28 25 25 26 24 22 20 21 22 19 12 9 11 13 14 15 12 12 13 14 10 15 20
46 46 50 51 52 52 51 51 50 50 53 54 56 48 42 42 42 40 35 29 26 23 23 22 20 20 20 20 18 18 14 11 12 10 10 14 10 11 13 10 13 19 21
48 49 48 49 50 50 47 50 51 53 54 51 48 46 42 37 36 33 28 26 23 21 19 17 16 16 17 19 17 18 15 13 10 3 8 8 10 9 11 13 14 19 20
50 49 49 47 47 48 49 52 52 49 45 41 40 37 33 31 32 29 24 24 21 18 15 12 11 12 15 17 15 14 14 16 10 9 9 9 8 7 12 17 16 22 24
50 48 49 47 46 49 50 50 48 46 43 40 38 37 33 31 29 25 20 18 16 13 11 11 10 12 15 16 15 13 11 15 14 14 8 11 9 7 13 16 20 22 21
51 48 47 45 46 47 46 43 40 37 36 35 36 35 31 28 23 19 15 12 9 11 12 11 12 13 13 13 13 10 10 11 7 6 5 10 7 6 13 14 17 21 21
49 46 44 41 43 44 45 41 36 33 31 31 30 28 25 22 18 14 9 7 8 10 9 9 11 10 9 9 9 9 7 7 3 4 8 9 6 10 10 14 17 19 21
45 44 43 41 40 40 38 36 35 32 29 24 22 23 20 16 13 8 4 4 4 3 5 7 8 8 4 4 6 10 8 6 4 6 3 10 7 11 12 12 16 19 20
43 41 41 40 39 38 36 34 31 27 23 20 19 20 17 14 7 4 3 2 4 7 4 5 6 8 4 1 3 8 11 6 8 3 5 10 8 9 13 13 13 18 19
36 36 35 35 36 34 33 31 26 23 21 19 19 18 14 11 9 4 4 4 3 4 4 2 3 4 5 3 3 1 6 4 7 1 6 4 7 8 11 13 15 17 20
39 35 33 31 31 31 28 25 23 21 19 18 18 14 11 8 6 2 5 12 3 3 4 3 10 11 13 7 4 5 5 6 7 5 5 5 6 11 6 13 18 19 21
35 32 31 30 28 27 29 23 22 21 17 16 16 14 13 8 5 10 10 6 7 7 6 10 13 18 15 15 15 13 9 12 17 15 10 12 10 11 8 10 19 21 23
32 31 30 27 25 26 22 22 19 18 20 15 16 12 11 11 12 11 13 13 14 11 10 12 14 17 19 22 25 19 17 17 22 26 14 13 14 14 16 14 15 24 25
35 37 30 25 25 23 27 24 20 23 20 17 14 16 15 15 14 19 17 18 19 21 21 22 18 25 29 30 28 21 25 21 21 27 24 23 21 21 21 18 18 21 26
34 34 30 19 28 23 26 23 19 18 22 19 21 19 21 18 22 29 22 19 15 17 23 29 30 32 31 34 31 26 24 27 24 26 28 29 30 27 27 26 21 25 27
41 41 38 28 29 23 23 24 25 24 27 25 22 26 26 24 27 25 21 18 23 24 27 28 29 33 32 31 31 28 23 24 29 23 27 34 38 34 31 32 29 27 33
45 44 34 27 23 26 26 32 32 31 30 28 29 29 25 27 29 29 24 24 27 28 25 24 25 27 31 33 35 34 35 30 31 34 35 30 37 38 37 40 36 34 33
37 38 33 31 26 26 22 22 23 31 33 35 36 27 26 27 28 25 25 29 27 21 23 21 22 27 27 29 34 37 31 28 27 32 36 34 38 41 40 40 44 43 41
37 38 36 32 26 22 19 19 18 18 20 23 25 23 24 19 18 22 24 20 16 17 18 21 26 29 31 36 39 34 30 28 26 25 27 32 37 41 43 45 42 46 47
40 37 36 37 28 26 20 17 17 13 13 15 11 12 18 19 18 20 17 14 21 20 18 21 28 29 28 33 40 35 30 19 14 9 9 15 25 40 49 49 51 48 51
44 39 40 34 31 25 20 17 14 11 10 13 9 14 15 13 11 13 26 29 23 17 19 22 21 27 32 26 30 32 21 18 7 8 20 23 25 17 26 42 49 47 50
51 44 42 34 33 28 23 19 16 16 14 15 14 16 13 12 16 22 16 13 11 10 14 21 26 23 26 22 20 14 10 9 42 21 21 16 20 18 17 24 32 44 50
57 47 43 38 35 31 27 24 21 21 22 21 14 17 15 14 18 7 11 2 8 16 24 18 17 17 16 17 16 14 15 18 17 23 32 32 27 25 28 32 34 38 37
61 55 44 46 40 35 31 27 22 26 25 25 21 20 18 15 5 8 12 9 15 27 21 13 12 10 11 11 14 16 15 14 12 20 32 43 36 31 32 33 36 39 42
66 58 53 53 48 41 33 24 27 26 28 28 29 26 24 29 17 12 15 16 25 25 12 10 8 11 9 9 13 13 12 14 18 20 31 40 45 42 39 33 32 36 40
Wind_Direction_850mb
120 121 127 128 130 134 131 131 130 131 135 133 132 127 126 124 128 131 128 126 120 109 107 104 100 95 89 80 71 68 76 97 105 116 97 101 94 100 117 95 60 62 121
122 123 125 128 129 133 132 130 130 133 132 133 135 132 128 126 126 125 125 127 124 112 108 97 89 84 77 70 56 56 66 74 95 124 94 98 83 96 121 105 68 108 119
127 125 124 128 130 132 133 133 134 135 130 131 138 141 136 126 123 124 120 116 109 104 98 92 88 78 64 56 52 51 46 54 76 99 113 88 76 98 113 102 100 121 129
132 131 130 131 132 134 134 134 133 133 132 135 135 134 134 127 123 124 118 112 110 103 94 83 75 65 53 39 35 37 46 56 44 103 102 109 69 108 107 109 110 130 130
134 134 134 134 137 136 135 133 131 128 128 132 135 140 138 133 127 127 119 114 108 98 88 72 69 55 34 25 25 23 45 60 56 31 146 129 88 96 105 110 118 126 127
138 137 137 139 141 140 137 133 133 131 127 128 129 132 135 131 126 123 117 109 105 88 68 66 47 24 13 11 14 19 39 70 77 114 132 123 111 101 117 110 121 141 137
141 140 139 140 140 139 140 142 140 138 140 140 138 135 134 130 127 125 124 113 88 74 67 46 20 7 11 7 13 29 35 52 77 103 126 132 131 137 134 142 128 141 148
146 145 143 143 144 143 145 144 147 152 150 148 147 145 140 138 138 136 124 103 88 80 53 18 3 356 357 9 31 23 36 43 58 112 128 106 142 158 143 146 144 149 152
149 149 150 150 150 152 151 147 144 145 145 145 149 149 150 147 148 141 107 83 89 37 12 8 356 345 341 41 29 22 38 83 77 103 163 165 166 163 155 147 161 164 167
153 151 148 152 154 154 157 158 156 153 153 150 154 154 162 168 135 148 83 70 332 331 342 358 17 13 10 335 3 46 63 103 32 121 258 186 177 176 171 170 170 178 182
159 159 155 156 157 157 157 159 167 170 169 163 162 162 170 180 168 214 284 228 348 322 10 83 38 15 8 71 10 344 79 47 356 88 120 311 220 207 181 189 184 195 195
158 161 162 164 159 161 163 166 170 175 170 168 174 182 206 203 162 4 274 324 272 296 346 34 354 343 318 293 305 303 280 300 294 309 284 308 267 226 205 204 201 203 205
164 160 162 158 162 166 163 171 176 177 176 188 192 216 233 226 272 273 273 286 264 274 308 321 327 328 315 317 315 319 277 276 284 297 268 274 273 246 238 233 215 212 213
179 173 170 166 166 170 176 161 175 171 173 177 211 222 240 254 286 289 299 289 287 296 308 323 335 338 340 328 319 302 290 300 293 271 260 270 283 267 238 242 232 222 223
177 182 174 180 170 168 175 184 197 199 207 227 223 235 249 275 281 292 314 314 298 298 301 306 309 306 319 315 319 288 283 277 280 268 265 262 274 273 247 247 245 236 234
186 185 185 194 187 194 201 211 213 216 213 225 229 236 247 258 281 288 291 291 305 289 289 295 298 305 306 307 306 313 289 272 273 264 262 265 266 258 257 247 253 246 246
188 187 193 201 210 212 214 221 224 216 214 232 244 249 251 269 281 278 278 290 304 297 300 297 297 303 308 309 308 306 297 279 277 263 259 275 264 261 257 250 250 252 248
195 197 203 209 210 210 222 227 235 235 235 240 244 251 249 254 273 284 286 291 291 297 297 301 302 298 303 309 310 308 302 293 272 264 264 260 260 259 260 260 255 251 253
201 202 207 210 211 215 219 235 245 236 242 251 249 250 253 260 265 282 283 305 300 293 294 300 311 313 318 320 315 308 303 300 289 271 264 261 253 252 261 265 259 254 256
197 201 210 217 217 209 220 230 238 229 228 238 253 255 258 267 269 274 280 290 305 313 313 316 322 321 323 328 326 324 317 313 303 294 285 269 261 259 260 264 264 260 256
200 202 201 206 212 212 222 236 236 241 236 232 238 247 247 257 266 279 273 293 310 311 312 312 313 319 326 329 324 323 332 345 338 354 357 307 279 265 263 265 266 261 260
201 205 199 197 200 212 222 221 218 221 217 195 211 243 253 265 279 286 302 300 297 300 303 307 309 317 320 329 332 333 341 14 79 338 326 314 319 289 276 272 270 272 265
199 193 192 200 210 218 210 212 213 214 217 233 232 245 239 268 301 301 306 290 280 294 302 295 299 310 314 324 334 343 346 315 326 329 332 324 310 309 284 286 282 275 271
198 195 197 206 204 200 202 214 223 226 225 239 219 218 228 270 297 319 321 57 7 335 319 302 300 305 311 324 336 341 323 315 322 321 324 328 320 309 290 284 286 283 284
200 199 197 196 197 198 205 213 227 226 230 223 215 212 241 283 262 260 284 308 312 319 321 313 316 330 327 339 351 348 347 348 346 329 327 333 327 326 313 297 289 283 279
203 206 203 200 202 206 209 219 234 239 246 235 222 225 242 268 251 256 269 271 291 304 303 309 346 349 343 352 355 355 4 10 348 337 327 329 329 333 331 324 314 298 291